{"data":{"norad_id":84006,"intl_designator":"","name":"UNKNOWN","alt_names":[],"object_type":"UNKNOWN","status":"UNKNOWN","operator":null,"country":null,"launch_date":null,"launch_site_code":null,"launch_vehicle":null,"mission":null,"orbit_class":"UNKNOWN","rcs_meters":null,"size_class":null,"mass_kg":null,"dimensions":null,"purposes":[],"wikipedia_slug":null,"has_3d_model":false,"image_url":null,"decayed_at":null,"tle_current":{"epoch":"2026-05-15T03:36:53.057376Z","epoch_age_seconds":936286,"freshness":"AGED","line1":"1 84006U          26135.15061409  .00000003  00000+0  00000+0 0  9992","line2":"2 84006  22.4641 146.0485 6168121 114.5640 319.8352  2.16230043 87549","mean_motion":2.16230043,"eccentricity":0.6168121,"inclination_deg":22.4641,"raan_deg":146.0485,"arg_perigee_deg":114.564,"mean_anomaly_deg":319.8352,"bstar":0,"rev_number":8754,"period_min":665.95741277266,"perigee_km":3301.7347880232,"apogee_km":34464.838034766,"semimajor_km":25261.423411395,"source":"CELESTRAK","updated_at":"2026-05-25T13:38:11.425775Z"}}}